Location: Unspecified
(40.9833°N, 0.0000°E)
Time: 16:03:53
(UTC+00:00)

FALCONSAT 3 - Visible Passes

Search period start: 22 July 2019 00:00
Search period end: 01 August 2019 00:00
Orbit: 456 x 458 km, 35.4° (Epoch: 21 July)

Date Brightness Start Highest point End Pass type
(mag) Time Alt. Az. Time Alt. Az. Time Alt. Az.
22 Jul ? 02:39:37 20° SE 02:39:37 20° SE 02:41:09 10° ESE visible
23 Jul ? 03:39:11 16° SSW 03:39:35 17° SSW 03:41:59 10° SSE visible
24 Jul ? 03:05:21 10° SSE 03:05:21 10° SSE 03:05:26 10° SSE visible
27 Jul ? 21:16:17 10° SW 21:16:47 13° SSW 21:16:47 13° SSW visible
28 Jul ? 20:39:39 10° SW 20:42:29 22° SSE 20:42:35 21° SSE visible
29 Jul ? 20:03:03 10° SSW 20:05:47 20° SSE 20:08:07 12° ESE visible
29 Jul ? 21:40:55 10° WSW 21:41:48 16° SW 21:41:48 16° SW visible
30 Jul ? 21:04:12 10° WSW 21:07:08 32° S 21:07:08 32° S visible
31 Jul ? 20:27:29 10° WSW 20:30:46 32° S 20:32:19 22° SE visible
